This is the latest recevied weather packets stored in our database for station/object K7CTM. If no packets are shown the sender has not sent any weather packets the latest 10 day(s).
| Time | Temp. | Humidity | Pressure | Rain* | Wind** | Luminosity | Snow |
|---|---|---|---|---|---|---|---|
| 1777937243 | 10.56° C | 44% | 1023.8 hPa | 0 mm | - | 76 W/m² | - |
| 1777936939 | 10.56° C | 47% | 1023.7 hPa | 0 mm | - | 73 W/m² | - |
| 1777936636 | 10.56° C | 43% | 1023.8 hPa | 0 mm | - | 79 W/m² | - |
| 1777936333 | 10.56° C | 46% | 1023.8 hPa | 0 mm | - | 86 W/m² | - |
| 1777936029 | 10.56° C | 43% | 1023.8 hPa | 0 mm | - | 85 W/m² | - |
| 1777935728 | 10.56° C | 43% | 1023.8 hPa | 0 mm | - | 91 W/m² | - |
| 1777935426 | 10.56° C | 43% | 1023.9 hPa | 0 mm | - | 103 W/m² | - |
| 1777935121 | 10° C | 43% | 1023.9 hPa | 0 mm | - | 92 W/m² | - |
| 1777934819 | 10.56° C | 42% | 1023.9 hPa | 0 mm | - | 76 W/m² | - |
| 1777934515 | 10.56° C | 43% | 1023.9 hPa | 0 mm | - | 76 W/m² | - |
| 1777934213 | 10.56° C | 42% | 1024.1 hPa | 0 mm | - | 88 W/m² | - |
| 1777933908 | 10.56° C | 42% | 1023.9 hPa | 0 mm | - | 107 W/m² | - |
| 1777933605 | 10.56° C | 43% | 1023.9 hPa | 0 mm | - | 104 W/m² | - |
| 1777933302 | 10.56° C | 42% | 1023.9 hPa | 0 mm | - | 111 W/m² | - |
| 1777933000 | 10.56° C | 42% | 1023.9 hPa | 0 mm | - | 119 W/m² | - |
| 1777932696 | 11.11° C | 42% | 1023.9 hPa | 0 mm | - | 113 W/m² | - |
| 1777932393 | 11.11° C | 42% | 1023.9 hPa | 0 mm | - | 141 W/m² | - |
| 1777932091 | 11.11° C | 41% | 1023.9 hPa | 0 mm | - | 167 W/m² | - |
| 1777931786 | 11.67° C | 39% | 1024 hPa | 0 mm | - | 173 W/m² | - |
| 1777931484 | 11.11° C | 40% | 1023.8 hPa | 0 mm | - | 236 W/m² | - |
| 1777931180 | 11.11° C | 40% | 1024 hPa | 0 mm | - | 230 W/m² | - |
| 1777930876 | 11.11° C | 39% | 1024 hPa | 0 mm | - | 230 W/m² | - |
| 1777930573 | 11.11° C | 42% | 1024 hPa | 0 mm | - | 237 W/m² | - |
| 1777930270 | 11.11° C | 42% | 1024.1 hPa | 0 mm | - | 192 W/m² | - |
| 1777929966 | 11.67° C | 42% | 1024.3 hPa | 0 mm | - | 197 W/m² | - |
* Rain latest hour (hover to see other rain measurements)
** Current wind speed in m/s (hover to see current wind gust speed)